Location: Asheville, NC
(35.6000°N, 82.5500°W)
Time: 12:52:36
(UTC-05:00)

Vanguard 2 Rocket - Pass Details

Date: 13 December 2017
Orbit: 556 x 3326 km, 32.9° (Epoch: 16 January)

Event Time Altitude Azimuth Distance (km) Brightness Sun altitude
Rises 03:26:15 0° 284° (WNW) 7,279 - -48.9°
Reaches altitude 10° 03:32:19 10° 274° (W) 6,283 - -47.7°
Maximum altitude 03:47:07 27° 226° (SW) 4,549 - -44.7°
Exits shadow 03:53:16 22° 197° (SSW) 4,510 10.2 -43.4°
Drops below altitude 10° 03:59:05 10° 175° (S) 4,985 10.7 -42.2°
Sets 04:03:16 0° 164° (SSE) 5,590 11.1 -41.4°
